GEFSMW_con_probscp_174.txt.gz
Probability
34 40 44 47 51 53 53 53 52 50 50 50 51 52 52 48 42 39 38 36 33 31 29 27 27 24 18 15 13 12 11 10 10 8 6 4 5 6 9 11 10 8 7
34 42 48 48 49 50 51 52 51 49 47 47 48 49 49 45 41 39 38 36 32 29 27 26 26 24 20 15 12 11 10 10 10 10 7 6 5 5 7 9 8 6 5
34 42 48 46 44 45 48 50 50 47 44 43 43 43 43 41 38 36 35 33 29 26 24 23 23 23 20 14 10 9 9 8 8 9 9 8 7 7 8 8 6 4 3
34 40 44 41 37 37 41 45 46 45 42 41 39 38 38 36 35 33 32 29 26 24 22 20 19 18 16 12 9 9 8 7 7 8 8 8 8 8 9 8 5 3 3
33 37 39 37 33 31 34 40 43 42 40 39 38 37 36 35 34 33 31 29 27 25 22 19 17 15 13 10 8 7 8 8 8 8 8 8 8 9 9 7 5 4 5
26 29 32 33 32 30 33 38 41 40 38 38 38 39 38 36 34 33 32 30 27 25 22 19 17 16 14 10 7 6 5 6 7 8 8 7 7 8 9 7 5 4 5
18 22 26 28 29 31 33 37 39 38 37 37 39 40 40 37 33 32 32 29 24 21 19 18 18 16 13 9 6 4 4 4 5 7 8 7 7 8 8 7 5 4 4
16 20 24 26 29 31 32 33 36 36 35 35 36 38 39 37 34 32 31 26 21 17 16 17 16 14 10 6 4 3 3 3 4 5 6 7 6 7 8 8 6 3 2
18 20 24 27 28 29 29 30 33 33 32 30 30 32 34 34 32 31 29 25 21 17 15 14 13 10 6 3 2 1 2 4 4 4 5 6 6 6 7 8 5 2 1
21 20 21 22 22 21 23 26 28 28 27 26 26 26 28 28 27 26 25 23 21 18 14 11 9 7 4 2 1 0 1 3 5 4 4 4 5 6 7 6 3 1 0
20 16 13 14 14 13 17 22 23 24 24 24 24 23 22 20 19 19 19 18 18 16 11 8 7 4 2 1 1 0 0 2 3 3 2 2 3 5 5 4 2 0 0
14 11 8 10 11 13 17 21 21 21 20 20 20 19 17 14 13 13 13 13 13 11 8 5 4 2 1 1 1 0 0 0 1 1 0 1 2 2 2 1 0 0 0
12 11 11 13 14 16 17 18 18 17 16 15 15 15 14 14 13 12 10 10 10 7 5 3 1 0 0 1 1 0 0 0 0 0 0 1 2 1 0 0 0 0 0
12 13 15 16 16 15 14 12 11 12 13 13 13 14 14 14 14 12 10 8 7 5 4 3 1 0 0 0 0 0 0 0 0 0 1 2 2 1 0 0 0 0 0
9 11 13 14 12 10 9 7 7 9 11 12 13 14 14 13 13 12 9 7 5 5 5 4 2 0 0 0 0 0 0 0 0 1 2 3 2 1 0 0 0 0 0
6 7 8 8 8 7 6 6 6 8 10 12 13 14 14 13 11 9 7 5 5 5 5 3 1 0 0 0 0 0 0 0 1 2 3 2 1 0 0 0 0 0 0
3 3 4 5 6 7 7 7 7 7 9 11 12 12 12 11 8 5 3 3 4 5 4 2 1 0 0 0 0 0 0 1 2 3 3 2 0 0 0 0 0 0 0
1 1 2 4 6 8 9 9 8 6 6 9 10 9 9 8 6 3 2 3 5 6 4 2 0 0 0 0 0 0 0 1 3 3 3 2 0 0 0 0 0 0 0
0 0 1 3 6 7 8 8 7 4 4 5 6 6 6 5 5 5 5 6 8 8 5 2 0 0 1 0 0 0 0 1 2 3 2 1 0 0 0 0 0 0 0
0 0 0 2 4 5 5 5 4 3 2 2 3 4 5 5 7 7 8 8 8 7 4 2 0 1 1 0 0 0 0 1 1 2 1 0 0 0 0 0 0 0 0
0 0 0 1 2 3 3 4 3 3 2 2 3 3 4 6 7 8 8 7 5 3 1 1 1 2 2 1 0 0 0 0 0 1 1 0 0 0 0 0 0 0 0
0 0 0 0 1 3 3 3 3 3 2 1 2 3 4 5 6 6 6 5 3 1 0 0 1 2 2 1 0 0 0 0 0 0 1 0 0 0 0 0 0 0 0
0 0 0 0 1 2 3 3 3 3 2 1 1 2 4 4 4 4 3 3 2 1 0 0 1 2 3 3 1 0 0 0 0 0 0 0 0 0 0 0 0 0 0
0 0 0 0 1 2 3 3 3 3 2 1 1 2 2 3 3 3 2 2 2 1 0 0 1 2 3 3 2 0 0 0 0 0 0 0 0 0 0 0 1 1 1
0 0 0 0 1 2 3 3 3 3 2 1 1 1 1 1 2 2 1 1 1 1 0 0 1 1 1 1 1 0 0 0 0 0 0 0 0 0 0 0 1 2 3
0 0 0 0 1 2 3 3 3 3 1 1 1 0 0 1 1 1 0 0 1 0 0 0 0 0 0 0 0 0 0 0 0 0 0 0 0 0 0 0 1 2 3

GEFSMW_con_probscp_180.txt.gz
Probability
25 29 37 44 45 44 43 42 40 40 40 38 35 29 22 16 13 13 12 10 8 7 5 4 4 3 2 2 2 2 2 2 2 1 0 0 0 0 0 0 0 0 0
19 25 34 40 39 36 37 38 37 36 36 36 34 28 21 15 12 10 8 7 6 5 4 4 4 3 3 1 1 1 1 1 1 0 0 0 0 0 0 0 0 0 0
15 22 30 34 31 28 29 31 30 29 30 32 31 26 20 13 9 6 5 4 4 4 3 3 4 4 4 1 0 0 0 0 0 0 0 0 0 0 0 0 0 0 0
17 21 25 26 25 24 24 24 24 23 24 25 24 22 17 11 6 5 5 5 6 6 5 5 5 5 4 1 0 0 0 0 0 0 0 0 0 0 0 0 0 0 0
15 18 19 18 19 18 18 18 19 18 18 17 18 17 14 10 7 6 6 8 9 8 7 5 4 3 2 0 0 0 0 0 0 0 0 0 0 0 0 0 0 0 0
10 10 12 12 12 12 13 14 15 15 14 13 14 14 13 11 9 8 8 10 10 8 6 4 2 1 0 0 0 0 0 0 0 0 0 0 0 0 0 0 0 0 0
6 5 6 9 10 10 11 11 12 13 13 13 13 13 13 13 12 10 9 10 10 7 5 3 1 0 0 0 0 0 0 0 0 0 0 0 0 0 0 0 0 0 0
3 3 4 7 9 10 10 10 11 12 13 13 13 12 12 13 12 10 8 8 9 7 4 3 2 1 0 0 0 0 0 0 0 0 0 0 0 0 0 0 0 0 0
2 3 4 5 7 8 9 9 9 9 10 11 11 11 11 11 11 8 7 7 7 6 4 3 2 1 0 0 0 0 0 0 0 0 0 0 0 0 0 0 0 0 0
2 3 3 3 4 5 7 7 6 5 6 7 8 8 9 9 9 8 6 6 6 5 3 2 2 1 0 0 0 0 0 0 0 0 0 0 0 0 0 0 0 0 0
3 2 1 1 2 3 4 4 4 3 3 4 5 5 6 7 7 6 6 5 4 3 2 1 1 0 0 0 0 0 0 0 0 0 0 0 0 0 0 0 0 0 0
1 1 0 0 1 2 2 3 3 2 2 3 3 3 4 5 5 5 4 4 3 2 1 0 0 0 0 0 0 0 0 0 0 0 0 0 0 0 0 0 0 0 0
0 0 0 0 0 1 1 1 2 2 2 3 3 3 3 3 4 3 3 3 3 2 1 0 0 0 0 0 0 0 0 0 0 0 0 0 0 0 0 0 0 0 0
0 0 0 0 1 1 1 1 2 2 3 3 3 3 4 4 3 3 3 3 3 2 1 0 0 0 0 0 0 0 0 0 0 0 0 0 0 0 0 0 0 0 0
0 0 0 0 1 2 2 2 3 3 3 3 3 4 5 5 4 3 3 3 3 2 1 0 0 0 0 0 0 0 0 0 0 0 0 0 0 0 0 0 0 0 0
0 0 0 0 1 1 2 2 2 3 3 3 3 4 4 3 3 2 2 2 2 2 1 0 0 0 0 0 0 0 0 0 0 0 0 0 0 0 0 0 0 0 0
0 0 0 0 0 0 1 1 1 1 2 3 2 2 1 1 1 1 1 1 1 1 0 0 0 0 0 0 0 0 0 0 0 0 0 0 0 0 0 0 0 0 0
0 0 0 0 0 0 0 0 0 0 1 2 1 0 0 0 0 0 0 0 0 0 0 0 0 0 0 0 0 0 0 0 0 0 0 0 0 0 0 0 0 0 0
0 0 0 0 0 0 0 0 0 0 0 0 0 0 0 0 0 0 0 0 0 0 0 0 0 0 0 0 0 0 0 0 0 0 0 0 0 0 0 0 0 0 0
0 0 0 0 0 0 0 0 0 0 0 0 0 0 0 0 0 0 0 0 0 0 0 0 0 0 0 0 0 0 0 0 0 0 0 0 0 0 0 0 0 0 0
0 0 0 0 0 0 0 0 0 0 0 0 0 0 0 0 0 0 0 0 0 0 0 0 0 0 0 0 0 0 0 0 0 0 0 0 0 0 0 0 0 0 0
0 0 0 0 0 0 0 0 0 0 0 0 0 0 0 0 0 0 0 0 0 0 0 0 0 0 0 0 0 0 0 0 0 0 0 0 0 0 0 0 0 0 0
0 0 0 0 0 0 0 0 0 0 0 0 0 0 0 0 0 0 0 0 0 0 0 0 0 0 0 0 0 0 0 0 0 0 0 0 0 0 0 0 0 0 0
0 0 0 0 0 0 0 0 0 0 0 0 0 0 0 0 0 0 0 0 0 0 0 0 0 0 0 0 0 0 0 0 0 0 0 0 0 0 0 0 0 0 0
0 0 0 0 0 0 0 0 0 0 0 0 0 0 0 0 0 0 0 0 0 0 0 0 0 0 0 0 0 0 0 0 0 0 0 0 0 0 0 0 0 0 0
0 0 0 0 0 0 0 0 0 0 0 0 0 0 0 0 0 0 0 0 0 0 0 0 0 0 0 0 0 0 0 0 0 0 0 0 0 0 0 0 0 0 0

GEFSMW_con_probscp_186.txt.gz
Probability
5 7 11 16 19 19 17 15 15 16 17 17 17 15 15 14 10 7 3 1 1 3 4 4 5 6 6 6 5 5 4 2 1 0 0 0 1 2 2 1 0 0 0
3 4 6 10 14 15 16 15 16 17 18 17 16 14 14 11 8 4 2 2 2 3 4 5 5 6 5 4 4 4 3 1 0 0 0 0 0 1 1 0 0 0 0
1 1 2 5 8 11 13 14 15 16 17 16 15 14 13 9 5 2 2 3 3 3 4 5 5 4 3 3 2 2 1 0 0 0 0 0 0 0 0 0 0 0 0
0 0 1 2 4 8 11 12 13 13 14 14 14 15 13 9 5 3 2 3 3 3 3 4 4 2 1 1 1 1 0 0 0 0 0 0 0 0 0 0 0 0 0
0 0 1 1 2 4 9 11 11 11 12 13 14 15 14 10 6 4 2 1 1 2 3 4 3 2 1 0 0 0 0 0 0 0 0 0 0 0 0 0 0 0 0
0 1 2 2 1 2 6 9 11 11 11 10 11 12 12 9 6 3 2 1 2 3 3 3 3 3 2 1 1 0 0 0 0 0 0 0 0 0 0 0 0 0 0
0 1 2 3 2 2 4 7 8 9 9 8 7 8 9 7 5 4 3 3 4 4 3 3 3 3 3 2 1 0 0 0 0 0 0 0 0 0 0 0 0 0 0
0 0 1 3 3 2 3 4 5 6 6 5 5 5 5 6 6 5 4 4 4 4 3 2 2 3 3 3 1 0 0 0 0 0 0 0 0 0 0 0 0 0 0
0 0 1 2 2 1 1 3 4 4 4 4 5 4 4 5 7 6 4 3 3 3 3 2 2 2 3 2 1 0 0 0 0 0 0 0 0 0 0 0 0 0 0
0 0 0 1 1 0 1 2 3 3 3 4 4 4 3 4 5 4 2 2 2 2 3 3 3 2 2 2 1 0 0 0 0 0 0 0 0 0 0 0 0 0 0
0 0 0 0 0 0 0 1 1 3 3 3 4 3 3 3 3 2 1 0 0 1 2 4 4 3 1 1 0 0 0 0 0 0 0 0 0 0 0 0 0 0 0
0 0 0 0 0 0 0 0 1 2 3 3 3 3 2 1 1 1 0 0 0 1 2 3 4 3 1 0 0 0 0 0 0 0 0 0 0 0 0 0 0 0 0
0 0 0 0 0 0 1 1 1 2 3 3 3 2 1 0 0 0 0 0 0 0 1 3 3 3 1 0 0 0 0 0 0 0 0 0 0 0 0 0 0 0 0
0 0 0 0 1 1 1 1 1 2 3 3 3 1 0 0 0 0 0 0 0 0 1 2 3 2 1 0 0 0 0 0 0 0 0 0 0 0 0 0 0 0 0
0 0 0 0 1 1 1 0 1 1 2 2 2 1 0 1 1 0 0 0 0 0 0 1 2 2 1 0 0 0 0 0 0 0 0 0 0 0 0 0 0 0 0
0 0 0 0 0 0 0 0 0 0 1 1 1 0 0 1 1 0 0 0 0 0 0 0 1 1 0 0 0 0 0 0 0 0 0 0 0 0 0 0 0 0 0
0 0 0 0 0 0 0 0 0 0 0 0 0 0 0 1 1 0 0 0 0 0 0 0 0 0 0 0 0 0 0 0 0 0 0 0 0 0 0 0 0 0 0
0 0 0 0 0 0 0 0 0 0 0 0 0 0 0 0 0 0 0 0 0 0 0 0 0 0 0 0 0 0 0 0 0 0 0 0 0 0 0 0 0 0 0
0 0 0 0 0 0 0 0 0 0 0 0 0 0 0 0 0 0 0 0 0 0 0 0 0 0 0 0 0 0 0 0 0 0 0 0 0 0 0 0 0 0 0
0 0 0 0 0 0 0 0 0 0 0 0 0 0 0 0 0 0 0 0 0 0 0 0 0 0 0 0 0 0 0 0 0 0 0 0 0 0 0 0 0 0 0
0 0 0 0 0 0 0 0 0 0 0 0 0 0 0 0 0 0 0 0 0 0 0 0 0 0 0 0 0 0 0 0 0 0 0 0 0 0 0 0 0 0 0
0 0 0 0 0 0 0 0 0 0 0 0 0 0 0 0 0 0 0 0 0 0 0 0 0 0 0 0 0 0 0 0 0 0 0 0 0 0 0 0 0 0 0
0 0 0 0 0 0 0 0 0 0 0 0 0 0 0 0 0 0 0 0 0 0 0 0 0 0 0 0 0 0 0 0 0 0 0 0 0 0 0 0 0 0 0
0 0 0 0 0 0 0 0 0 0 0 0 0 0 0 0 0 0 0 0 0 0 0 0 0 0 0 0 0 0 0 0 0 0 0 0 0 0 0 0 0 0 0
0 0 0 0 0 0 0 0 0 0 0 0 0 0 0 0 0 0 0 0 0 0 0 0 0 0 0 0 0 0 0 0 0 0 0 0 0 0 0 0 0 0 0
0 0 0 0 0 0 0 0 0 0 0 0 0 0 0 0 0 0 0 0 0 0 0 0 0 0 0 0 0 0 0 0 0 0 0 0 0 0 0 0 0 0 0

GEFSMW_con_probscp_192.txt.gz
Probability
8 9 10 11 13 14 18 23 27 29 31 33 34 33 31 27 23 22 22 22 22 21 20 21 23 25 22 15 13 15 15 12 12 11 8 6 6 8 9 9 10 10 12
7 8 9 11 13 14 17 21 25 27 28 30 32 32 30 25 21 20 20 20 19 18 18 20 21 23 21 17 15 16 14 10 10 9 6 4 5 7 7 8 8 11 13
7 7 8 10 13 15 17 19 23 24 26 27 28 27 26 22 18 17 18 18 16 16 16 17 18 19 18 16 15 14 11 8 7 7 5 4 5 6 7 8 9 11 13
8 7 7 9 12 14 16 18 21 23 24 25 25 25 23 20 19 18 18 17 15 14 13 14 15 15 14 13 12 11 9 8 7 7 7 6 6 5 6 7 8 9 10
7 7 7 8 9 11 13 15 18 20 21 22 23 24 22 20 20 20 20 18 14 11 10 12 13 12 11 10 9 8 9 9 9 9 8 8 6 4 2 3 4 5 6
5 5 7 8 8 9 11 12 13 15 17 18 20 21 21 21 21 22 21 19 16 11 9 11 12 11 10 9 8 7 8 9 9 9 9 9 7 4 1 1 1 2 4
4 4 6 7 7 8 10 11 11 11 11 13 17 19 19 20 20 21 21 19 16 14 11 11 11 11 9 9 8 8 8 9 9 9 9 9 8 6 4 2 1 2 2
3 3 3 4 4 6 8 9 9 8 8 9 13 16 16 15 15 16 17 16 15 14 11 9 10 10 8 8 9 10 9 9 10 9 8 8 8 7 6 5 3 2 2
2 2 1 1 2 3 5 6 7 6 6 7 8 9 10 10 10 11 12 12 12 11 8 6 8 8 8 8 9 10 10 10 10 8 6 6 6 5 5 5 5 3 2
1 1 1 2 2 3 3 4 5 5 4 5 4 5 6 8 8 9 9 8 8 7 6 6 6 7 7 7 7 8 9 9 8 6 4 3 3 2 2 3 3 3 2
0 0 1 2 3 3 3 4 5 4 4 4 3 4 5 7 7 7 7 7 6 5 5 6 6 5 5 5 5 5 6 5 4 4 3 2 1 0 0 1 1 1 1
0 0 1 2 3 3 3 3 4 5 5 4 3 3 4 5 5 6 6 6 6 4 4 4 3 2 2 3 3 3 3 1 1 2 2 2 1 0 0 0 0 0 0
0 0 1 3 3 3 3 3 3 4 5 4 4 3 3 3 4 4 5 6 5 4 3 2 2 1 0 2 3 3 1 0 0 1 1 1 1 0 0 0 1 1 1
0 1 2 3 3 2 3 4 4 4 4 3 3 3 3 3 3 3 4 4 4 3 2 2 1 1 0 2 3 2 1 0 0 1 1 1 1 0 0 1 2 2 2
0 1 2 3 3 3 3 4 4 4 3 2 2 2 3 3 2 2 2 2 2 2 2 2 1 0 0 1 1 1 0 0 1 2 2 2 1 0 0 1 2 2 2
0 0 1 3 3 3 4 4 4 3 2 2 2 3 3 2 1 1 1 1 1 1 3 2 1 0 0 0 0 0 0 0 2 3 3 1 0 0 0 0 1 1 1
0 0 1 2 3 3 4 5 4 3 3 3 3 3 3 2 1 0 0 0 0 2 3 3 1 0 0 0 0 0 0 0 1 2 3 2 1 0 0 0 0 0 0
0 0 1 2 3 3 4 5 5 4 3 3 3 3 3 2 1 0 0 0 0 1 2 2 1 0 0 0 0 0 0 0 0 1 3 4 3 1 0 0 0 0 0
0 0 0 1 1 2 3 4 4 3 3 3 3 3 1 1 0 0 0 0 0 1 1 1 1 0 0 0 0 0 0 0 1 1 2 3 2 1 0 0 0 0 0
0 0 0 0 0 1 2 2 2 2 2 2 2 2 1 0 0 0 0 0 0 0 0 0 0 0 0 0 0 0 0 0 1 2 2 1 1 0 0 0 0 0 0
0 0 0 0 0 0 1 1 1 1 1 1 1 1 0 0 0 0 0 0 0 0 0 1 1 0 0 0 0 0 0 0 1 2 2 1 0 0 0 0 0 0 0
0 0 0 0 0 0 0 0 0 0 0 0 0 0 0 0 0 0 0 0 0 0 0 1 2 1 0 0 0 0 0 0 0 1 1 0 0 0 0 0 0 0 0
0 0 0 0 0 0 0 0 0 0 0 0 0 0 0 0 0 0 0 1 1 0 0 1 1 1 0 0 0 0 0 0 0 0 0 0 0 0 0 0 0 0 0
0 0 0 0 0 0 0 0 0 0 0 0 0 0 0 0 0 0 0 1 1 1 0 0 0 0 0 0 0 0 0 0 0 0 0 0 0 0 0 0 0 0 0
0 0 0 0 0 0 0 0 0 0 0 0 0 0 0 0 0 0 0 1 1 1 0 0 0 0 0 0 0 0 0 0 0 0 0 0 0 0 0 0 0 0 0
0 0 0 0 0 0 0 0 0 0 0 0 0 0 0 0 0 0 0 0 0 1 0 0 0 0 0 0 0 0 0 0 0 0 0 0 0 0 0 0 0 0 0

GEFSMW_con_probscp_198.txt.gz
Probability
14 12 11 14 20 24 25 24 27 31 34 35 36 34 31 31 34 35 35 33 31 29 27 25 28 32 33 31 28 26 22 19 17 13 8 4 4 6 6 7 7 8 9
14 13 11 12 16 21 22 23 27 31 33 33 32 31 30 31 32 34 33 29 27 26 24 23 25 27 29 29 28 25 21 18 17 14 9 4 3 3 3 3 4 5 7
13 12 10 10 12 16 19 21 25 30 32 30 28 27 28 29 29 30 29 25 23 22 22 21 20 22 25 27 27 24 18 15 14 13 9 5 2 1 0 0 1 2 4
11 10 10 9 10 13 17 20 24 28 29 28 26 26 27 26 25 25 25 22 21 21 20 18 17 19 24 27 26 23 18 13 11 11 8 5 3 1 0 0 1 2 3
9 8 8 9 10 12 14 19 24 26 27 26 26 27 27 24 23 23 22 21 20 20 18 15 15 17 22 24 24 22 19 13 10 8 7 6 4 2 1 1 1 3 3
8 7 7 9 9 8 10 15 20 23 23 23 25 26 26 25 23 22 21 20 20 19 17 16 17 18 20 21 21 20 18 14 9 6 6 6 5 3 3 2 1 2 3
6 6 6 5 4 3 6 9 14 18 19 19 20 21 24 25 23 20 20 20 20 20 17 16 18 19 19 19 19 19 17 14 9 5 5 6 5 5 5 3 1 1 1
5 4 3 2 1 1 3 6 10 13 15 16 16 17 20 22 20 19 19 19 18 17 15 12 14 17 15 15 16 16 15 13 7 4 4 5 5 6 7 5 3 1 0
4 3 2 1 0 0 2 5 8 10 12 13 13 13 15 16 15 15 16 15 14 13 11 9 10 11 9 9 11 12 13 9 5 3 3 4 5 7 7 5 4 2 0
2 2 1 1 0 0 1 3 5 8 10 11 11 10 11 11 11 11 10 10 11 12 10 9 8 6 5 6 9 10 9 6 3 2 2 3 3 4 4 3 3 2 1
1 1 0 0 0 0 1 2 4 6 9 10 9 8 8 8 8 8 8 8 9 10 10 8 5 3 3 4 5 6 6 5 3 2 2 2 2 1 1 1 1 1 1
0 0 0 0 0 0 0 2 4 5 8 9 8 7 7 6 6 6 6 6 7 6 6 5 3 1 1 1 2 3 4 5 4 2 1 1 1 0 0 0 1 1 1
0 0 0 0 0 0 1 2 4 5 5 6 6 6 6 6 5 4 4 4 4 3 3 2 1 0 0 0 1 2 3 3 2 1 0 0 0 0 0 0 1 1 0
0 0 0 0 0 0 1 3 5 5 4 3 4 5 6 5 4 2 1 1 2 2 1 1 1 0 0 0 0 1 1 1 0 0 0 0 0 0 0 0 0 0 0
0 0 0 0 0 0 1 2 4 5 4 3 3 3 3 3 1 1 0 0 1 1 1 0 0 0 0 0 0 0 0 0 0 0 0 0 0 0 0 0 0 0 0
0 0 0 0 0 0 0 1 3 4 4 3 3 2 1 1 0 0 0 0 0 0 0 0 0 0 0 0 0 0 0 0 0 0 0 0 0 0 0 0 0 0 0
0 0 0 0 0 1 0 1 2 4 4 3 2 1 0 0 0 0 0 0 1 1 0 0 0 0 0 0 0 0 0 0 0 0 1 1 0 0 0 0 0 0 0
0 0 0 0 1 2 1 0 1 3 3 2 1 1 0 0 0 0 0 1 2 2 1 1 1 2 1 0 0 0 0 0 0 0 1 1 0 0 0 0 0 0 0
0 0 0 0 1 2 2 0 0 1 2 1 0 0 0 0 0 0 1 2 3 3 2 2 3 4 3 1 0 0 0 0 0 0 1 1 0 0 0 0 0 0 0
0 0 0 0 1 1 1 0 0 0 0 0 0 0 0 1 1 1 3 3 3 3 3 3 5 7 5 1 0 0 0 0 0 0 0 0 0 0 0 0 0 0 0
0 0 0 1 2 2 2 1 1 1 1 0 0 0 1 2 2 3 4 4 3 4 4 5 6 7 5 2 0 0 0 0 0 0 0 0 0 0 0 0 0 0 0
0 0 0 1 3 4 4 4 3 3 2 1 1 2 4 4 3 3 4 4 5 5 5 4 4 5 4 2 0 0 0 0 0 0 0 0 0 0 0 0 0 0 0
1 1 1 2 4 5 6 6 6 5 4 3 4 5 6 5 4 3 3 4 5 5 4 3 3 3 3 2 1 0 0 0 0 0 0 0 0 0 0 0 0 0 0
2 2 3 5 6 7 7 6 6 6 6 5 6 6 6 6 5 4 3 4 5 5 3 2 2 2 2 2 2 1 0 0 0 0 0 0 0 0 0 0 0 0 0
4 5 6 7 8 8 7 7 6 6 6 6 6 6 5 5 5 5 4 4 4 4 3 1 1 1 1 1 1 1 0 0 0 0 0 0 0 0 0 0 0 0 0
5 6 7 8 8 8 8 7 6 6 6 6 6 6 5 4 4 4 4 3 2 2 1 0 0 0 0 0 0 1 0 0 0 1 1 1 0 1 1 1 0 0 0

GEFSMW_con_probscp_204.txt.gz
Probability
5 6 7 8 10 10 9 8 8 10 13 16 17 15 12 12 14 15 15 15 15 14 12 10 9 9 12 13 9 5 3 2 1 0 0 0 0 0 0 0 0 0 0
5 6 6 7 9 8 7 6 6 8 10 12 14 13 12 13 13 13 12 12 12 13 13 10 8 9 12 12 8 5 3 2 2 1 0 0 0 0 0 0 0 0 0
5 5 4 5 6 5 4 3 3 5 8 10 12 12 11 11 11 10 9 9 9 11 12 10 8 8 9 8 6 5 3 3 2 1 0 0 0 0 0 0 0 0 0
5 5 3 3 4 3 2 1 2 5 7 9 11 11 10 9 9 8 7 7 7 9 10 10 8 7 6 6 5 4 4 3 2 1 0 0 0 0 0 0 0 0 0
4 4 3 3 3 2 1 0 1 3 5 7 9 10 10 9 8 7 7 6 7 7 9 9 8 7 6 6 6 4 4 4 2 0 0 0 0 0 0 0 0 0 0
3 3 3 2 2 1 0 0 0 1 2 5 7 8 9 8 7 6 6 6 6 7 8 8 7 7 6 6 6 4 4 4 3 1 0 0 0 0 0 0 0 0 0
3 3 1 1 1 0 0 0 0 0 2 5 6 6 6 5 4 3 3 4 6 6 6 6 6 6 6 6 5 4 3 4 3 2 1 0 0 0 0 0 0 0 0
3 2 1 0 0 0 0 0 0 1 3 4 4 3 2 1 1 0 1 3 5 5 5 4 4 4 4 4 4 3 3 3 3 2 1 0 0 0 0 0 0 0 0
3 2 1 0 0 0 0 0 0 0 2 3 3 1 0 0 0 0 0 2 3 4 4 3 3 3 3 3 3 3 3 3 3 3 1 0 0 0 0 0 0 0 0
1 1 1 0 0 0 0 0 0 0 1 2 2 1 0 0 0 0 1 2 3 3 3 3 3 2 1 2 3 3 3 3 2 2 1 0 0 0 0 0 0 0 0
0 0 0 0 0 0 0 0 0 0 0 1 1 0 0 0 0 0 1 2 3 3 3 3 3 1 0 0 1 2 2 1 1 1 1 0 0 0 0 0 0 0 0
0 0 0 0 0 0 0 0 0 0 0 0 0 0 0 0 0 0 1 3 3 3 3 3 2 1 0 0 0 1 1 0 0 0 0 0 0 0 0 0 0 0 0
0 0 0 0 0 0 0 0 0 0 0 0 0 0 0 0 0 1 2 3 3 3 3 3 2 1 0 0 0 0 0 0 0 0 0 0 0 0 0 0 0 0 0
0 0 0 0 0 0 0 0 0 0 0 0 0 0 0 0 0 1 2 3 3 3 3 3 3 1 1 0 0 0 0 0 0 0 0 0 0 0 0 0 0 0 0
0 0 0 0 0 0 0 0 0 0 0 0 0 0 0 0 0 1 2 3 3 3 3 3 3 3 2 1 0 0 0 0 0 0 0 0 0 0 0 0 0 0 0
0 0 0 0 0 0 0 0 0 0 0 0 0 0 0 0 0 0 1 2 2 2 2 2 2 2 2 1 0 0 0 0 0 0 0 0 0 0 0 0 0 0 0
0 0 0 0 0 0 0 0 0 0 0 0 0 0 0 0 0 0 0 1 1 1 1 1 1 1 1 0 0 0 0 0 0 0 0 0 0 0 0 0 0 0 0
0 0 0 0 0 0 0 0 0 0 0 0 0 0 0 0 0 0 0 0 0 0 0 0 0 0 0 0 0 0 0 0 0 0 0 0 0 0 0 0 0 0 0
0 0 0 0 0 0 0 0 0 0 0 0 0 0 0 0 0 0 0 0 0 0 0 0 0 0 0 0 0 0 0 0 0 0 0 0 0 0 0 0 0 0 0
0 0 0 0 0 0 0 0 0 0 0 0 0 0 0 0 0 0 0 0 0 0 0 0 0 0 0 0 0 0 0 0 0 0 0 0 0 0 0 0 0 0 0
0 0 0 0 0 0 0 0 0 0 0 0 0 0 0 0 0 0 0 0 0 0 0 0 0 0 0 0 0 0 0 0 0 0 0 0 0 0 0 0 0 0 0
0 0 0 0 0 0 0 0 0 0 0 0 0 0 0 0 0 0 0 0 0 0 0 0 0 0 0 0 0 0 0 0 0 0 0 0 0 0 0 0 0 0 0
0 0 0 0 0 0 0 0 0 0 0 0 0 0 0 0 0 0 0 0 0 0 0 0 0 0 0 0 0 0 0 0 0 0 0 0 0 0 0 0 0 0 0
0 0 0 0 0 0 0 0 0 0 0 0 0 0 0 0 0 0 0 0 0 0 0 0 0 0 0 0 0 0 0 0 0 0 0 0 0 0 0 0 0 0 0
0 0 0 0 0 0 0 0 0 0 0 0 0 0 0 0 0 0 0 0 0 0 0 0 0 0 0 0 0 0 0 0 0 0 0 0 0 0 0 0 0 0 0
0 0 0 0 0 0 0 0 0 0 0 0 0 0 0 0 0 0 0 0 0 0 0 0 0 0 0 0 0 0 0 0 0 0 0 0 0 0 0 0 0 0 0

GEFSMW_con_probscp_210.txt.gz
Probability
3 4 5 7 8 5 2 2 3 3 3 3 3 3 3 3 4 5 5 5 6 6 7 8 9 10 10 10 10 9 8 7 6 4 2 1 0 0 1 2 2 2 2
4 4 5 7 8 5 3 2 3 3 3 3 3 3 3 3 4 5 4 5 6 7 7 7 8 9 10 10 9 9 8 7 6 5 3 2 1 0 0 1 1 1 1
4 4 4 6 6 5 3 2 2 2 2 2 2 3 3 3 4 4 3 4 6 7 7 6 7 8 9 9 8 7 7 7 5 4 4 2 1 0 0 0 0 0 0
4 3 3 4 5 4 3 1 0 1 1 0 1 2 2 2 3 3 2 3 4 6 6 5 5 7 8 8 7 6 7 7 5 4 3 1 0 0 0 0 0 0 0
3 3 3 3 4 3 2 1 0 0 0 0 0 1 1 1 2 3 1 1 2 3 4 3 3 4 5 5 5 5 6 6 5 3 2 0 0 0 0 0 0 0 0
3 3 3 3 3 3 1 0 0 0 0 0 0 0 0 0 1 1 0 0 1 2 3 3 2 3 4 3 2 3 4 4 4 3 2 1 0 0 0 0 0 0 0
3 3 3 3 3 2 1 0 0 0 0 0 0 0 0 0 0 0 0 0 0 1 2 3 3 4 3 2 1 1 2 3 3 3 3 1 0 0 0 0 0 0 0
3 3 3 3 2 1 0 0 0 0 0 0 0 0 0 0 0 0 0 0 0 0 2 3 3 4 3 1 1 0 1 2 3 3 3 2 1 0 0 0 0 0 0
3 3 2 1 1 0 0 0 0 0 0 0 0 0 0 0 0 0 0 0 0 1 2 3 3 3 3 2 2 1 0 1 1 3 3 2 1 0 0 0 0 0 0
2 1 1 0 0 0 0 0 0 0 0 0 0 0 0 0 0 1 1 1 0 1 2 3 3 3 3 3 3 2 1 0 1 2 2 1 0 0 0 0 0 0 0
1 0 0 0 0 0 0 0 0 0 0 0 0 0 0 1 1 2 2 2 1 1 2 3 3 3 3 3 3 2 1 0 0 1 1 1 0 0 0 0 0 0 0
0 0 0 0 0 0 0 0 0 0 0 0 0 0 1 2 2 2 2 2 1 2 3 3 3 3 3 3 3 2 0 0 0 0 0 0 0 0 0 0 0 0 0
0 0 0 0 0 0 0 0 0 0 0 0 0 0 1 2 2 1 1 1 1 2 3 3 3 3 3 3 3 2 1 0 0 0 0 0 0 0 0 0 0 0 0
0 0 0 0 0 0 0 0 0 0 0 0 0 0 0 1 1 0 0 0 0 1 2 3 3 3 3 3 3 3 2 1 0 0 0 0 0 0 0 0 0 0 0
0 0 0 0 0 0 0 0 0 0 0 0 0 0 0 0 0 0 0 0 1 1 2 3 3 3 3 3 3 3 2 1 0 0 0 0 0 0 0 0 0 0 0
0 0 0 0 0 0 0 0 0 0 0 0 0 0 0 0 0 0 0 0 1 2 2 3 3 3 3 1 1 2 2 1 0 0 0 0 0 0 0 0 0 0 0
0 0 0 0 0 0 0 0 0 0 0 0 0 0 0 1 1 1 1 1 1 1 2 3 3 3 2 1 0 1 1 0 0 0 0 0 0 0 0 0 0 0 0
0 0 0 0 0 0 0 0 0 0 0 0 0 0 0 1 1 2 2 2 2 2 2 3 3 3 1 0 0 0 0 0 0 0 0 0 0 0 0 0 0 0 0
0 0 0 0 0 0 0 0 0 0 0 0 0 0 0 0 1 2 2 2 2 1 2 2 2 2 1 0 0 0 0 0 0 0 0 0 0 0 0 0 0 0 0
0 0 0 0 0 0 0 0 0 0 0 0 0 0 0 0 1 1 1 0 0 0 1 1 1 1 0 0 0 0 0 0 0 0 0 0 0 0 0 0 0 0 0
0 0 0 0 0 0 0 0 0 0 0 0 0 0 0 0 0 0 0 0 0 0 0 0 0 0 0 0 0 0 0 0 0 0 0 0 0 0 0 0 0 0 0
0 0 0 0 0 0 0 0 0 0 0 0 0 0 0 0 0 0 0 0 0 0 0 0 0 0 0 0 0 0 0 0 0 0 0 0 0 0 0 0 0 0 0
0 0 0 0 0 0 0 0 0 0 0 0 0 0 0 0 0 0 0 0 0 0 0 0 0 0 0 0 0 0 0 0 0 0 0 0 0 0 0 0 0 0 0
0 0 0 0 0 0 0 0 0 0 0 0 0 0 0 0 0 0 0 0 0 0 0 0 0 0 0 0 0 0 0 0 0 0 0 0 0 0 0 0 0 0 0
0 0 0 0 0 0 0 0 0 0 0 0 0 0 0 0 0 0 0 0 0 0 0 0 0 0 0 0 0 0 0 0 0 0 0 0 0 0 0 0 0 0 0
0 0 0 0 0 0 0 0 0 0 0 0 0 0 0 0 0 0 0 0 0 0 0 0 0 0 0 0 0 0 0 0 0 0 0 0 0 0 0 0 0 0 0

GEFSMW_con_probscp_216.txt.gz
Probability
13 15 16 16 17 19 18 15 12 10 9 9 9 10 8 7 8 9 11 13 11 9 9 11 12 12 12 14 16 16 16 18 19 20 17 15 13 11 12 13 14 15 16
15 15 16 17 18 17 16 14 11 9 8 7 7 8 7 7 8 9 11 13 12 10 10 11 11 10 11 13 15 16 16 17 20 21 19 14 11 10 9 10 12 15 17
17 17 16 17 17 15 14 12 10 9 7 6 5 5 5 6 6 7 10 11 11 10 9 9 10 10 10 11 13 14 14 16 20 22 20 15 12 11 8 8 10 13 15
16 16 15 15 15 13 12 11 10 9 7 5 4 3 3 4 4 5 8 9 9 8 8 9 11 11 10 11 12 13 13 16 19 21 20 17 15 13 10 8 8 10 11
11 12 12 12 12 12 10 9 8 7 4 3 3 3 3 3 3 5 7 8 8 8 9 11 12 12 11 11 12 13 14 15 17 18 19 17 16 15 12 9 8 8 8
6 8 9 9 10 10 8 7 6 4 3 2 2 2 2 2 2 4 6 7 8 9 9 11 11 11 10 11 11 11 12 14 15 16 16 15 14 15 15 11 8 7 6
4 6 6 7 8 8 6 4 4 4 3 2 1 1 1 1 1 2 4 5 6 7 8 8 8 8 8 9 10 10 11 13 13 14 15 14 14 15 15 12 9 6 5
4 4 5 6 7 6 4 3 2 3 3 2 1 0 0 0 0 1 2 3 4 5 5 5 4 5 6 8 9 10 11 13 14 14 15 14 14 14 15 12 9 6 5
3 3 4 5 6 5 4 2 1 1 2 3 2 1 0 0 0 1 2 1 2 3 3 3 3 3 4 6 7 8 10 11 13 14 14 13 12 12 13 12 8 6 5
4 3 3 4 4 4 2 1 0 0 2 3 2 1 0 0 0 1 1 1 1 2 3 2 3 3 4 5 6 7 7 8 9 11 11 10 9 9 10 8 5 4 3
4 4 3 3 3 2 1 0 0 0 1 2 2 1 1 1 0 0 0 0 0 1 2 3 3 3 3 4 5 6 6 6 6 6 7 7 7 7 6 3 2 2 2
4 3 3 2 1 1 0 0 0 0 1 1 1 0 1 1 1 0 0 0 0 1 2 3 3 3 3 3 4 4 4 4 4 4 5 5 6 6 5 3 2 3 3
3 3 3 1 0 0 0 0 0 0 0 0 0 0 1 1 1 0 0 0 0 1 2 3 3 3 3 3 3 3 3 3 3 3 4 5 6 7 7 6 5 4 3
2 3 2 1 0 0 0 0 0 0 0 0 0 0 0 0 0 0 0 0 0 1 2 3 3 3 3 3 3 3 3 3 3 3 3 5 7 9 9 9 6 4 3
1 2 2 1 0 0 0 0 0 0 0 0 0 0 0 0 0 0 0 0 1 1 3 3 3 3 3 2 3 3 3 3 3 3 4 5 6 7 7 7 5 3 2
0 1 1 0 0 0 0 0 0 0 0 0 0 0 0 0 0 0 0 1 2 3 3 3 4 3 2 1 2 3 3 3 3 3 4 4 4 3 3 3 2 1 1
0 0 0 1 1 1 1 0 0 0 0 0 0 0 0 0 0 0 0 1 2 3 3 4 4 4 3 1 0 2 3 3 3 4 4 4 2 1 1 0 0 0 0
0 1 2 3 3 3 2 1 0 0 0 0 0 0 0 0 0 0 0 0 1 2 3 3 4 5 4 1 0 1 2 3 3 4 4 4 2 1 0 0 0 0 0
1 3 4 5 5 5 3 2 1 0 0 0 0 0 0 0 0 0 0 0 1 2 2 2 3 4 3 1 0 1 2 3 3 3 3 3 2 1 0 0 0 0 0
3 4 6 6 6 6 4 3 2 1 0 0 0 0 0 0 0 0 1 1 2 3 2 2 3 3 1 0 0 1 2 2 2 2 1 1 1 0 0 0 0 0 0
3 4 6 6 6 6 4 3 2 1 0 0 0 0 0 0 0 1 2 3 3 4 4 3 3 3 2 0 0 0 1 1 1 1 0 0 0 0 0 0 0 1 1
1 3 4 6 6 6 4 3 2 1 0 0 1 1 1 1 1 1 3 3 3 4 3 3 3 3 3 1 0 0 0 0 0 0 0 0 0 0 0 0 0 0 0
0 1 2 3 4 4 3 2 2 1 0 0 1 2 2 2 2 3 3 3 3 3 2 2 2 2 2 1 0 0 0 0 0 0 0 0 0 0 0 0 0 0 0
0 0 1 1 2 1 1 1 1 1 1 1 1 1 2 3 3 3 3 3 3 3 2 1 1 0 0 0 0 0 1 1 0 0 0 0 0 0 0 0 0 0 0
1 2 2 2 1 0 0 0 0 1 2 2 1 1 1 3 3 3 3 3 2 2 2 1 0 0 0 0 0 0 1 1 0 0 0 0 0 0 0 0 0 1 1
3 3 3 3 2 1 0 0 0 1 2 2 1 0 1 2 3 3 3 2 1 1 1 0 0 0 0 0 0 0 1 1 0 0 0 0 0 0 0 0 0 1 0

GEFSMW_con_probscp_222.txt.gz
Probability
29 30 30 28 24 23 26 29 33 36 35 33 30 28 24 20 20 24 27 25 22 20 17 16 15 14 12 9 7 8 11 12 12 13 12 11 10 10 11 12 13 11 10
27 28 28 26 22 23 25 28 31 32 32 30 28 26 22 19 18 20 22 22 21 20 19 17 16 14 12 10 9 9 10 10 11 12 11 9 9 9 9 11 12 11 11
22 24 24 22 21 22 22 24 28 28 28 25 22 19 17 15 15 15 14 15 18 19 19 18 16 14 12 11 10 10 9 8 9 10 10 8 7 8 8 9 10 10 10
19 20 19 18 19 19 20 21 25 27 26 23 16 13 11 11 11 11 9 9 12 15 16 15 14 13 12 11 10 9 8 8 7 8 8 7 6 6 6 7 8 9 9
16 17 16 15 15 15 16 19 22 25 24 20 15 11 10 9 8 7 6 5 7 9 9 11 12 13 12 11 10 9 8 8 7 7 7 7 6 5 5 5 7 8 8
16 16 16 15 13 13 13 15 19 21 19 16 12 10 10 9 6 4 3 3 4 5 6 8 11 13 11 9 8 9 9 9 9 8 8 7 7 6 6 5 5 7 8
17 16 16 15 14 13 12 14 17 18 16 14 12 11 11 9 6 3 1 2 3 5 6 8 10 12 10 8 7 9 10 11 10 9 8 9 8 6 6 5 4 5 7
14 14 14 14 13 12 13 14 15 15 13 12 12 12 10 8 5 3 2 2 4 6 7 8 9 10 9 8 8 9 10 10 9 8 9 10 9 6 4 3 3 4 5
9 10 12 13 13 12 12 13 12 10 9 10 10 8 6 5 3 3 3 3 5 6 7 6 7 9 9 9 10 9 8 7 8 8 9 9 8 6 3 2 2 3 3
7 8 11 13 13 12 11 11 11 8 6 6 5 3 2 2 1 1 3 3 5 6 5 4 5 6 7 7 8 7 6 6 7 8 7 7 6 6 4 2 2 2 1
8 9 10 12 13 13 12 11 10 7 5 3 1 1 1 0 0 1 2 3 3 4 4 4 4 4 3 3 4 4 4 5 6 6 5 5 5 6 6 5 4 3 1
9 9 11 12 13 13 12 10 7 5 3 1 0 0 1 1 0 0 1 2 2 2 2 2 2 1 0 1 2 2 3 4 4 4 4 3 5 7 7 6 5 4 3
8 8 11 13 13 13 11 8 5 4 3 1 1 1 3 3 2 2 3 3 1 0 1 1 1 0 0 0 1 2 3 3 3 4 4 3 5 7 7 5 4 4 4
7 9 12 14 13 12 10 7 5 3 3 3 2 3 4 5 4 4 6 6 2 0 0 0 0 0 0 0 1 3 3 3 3 4 4 4 4 6 6 4 3 3 3
7 9 14 15 13 10 8 6 5 4 3 3 3 4 5 6 5 6 8 6 3 1 0 0 0 0 0 0 2 3 3 3 3 3 4 4 4 4 4 3 3 3 3
5 9 13 15 13 11 8 7 6 5 4 3 3 4 5 5 5 6 7 6 5 3 2 1 1 0 0 0 1 2 3 3 3 2 3 4 3 3 2 2 2 2 2
6 9 13 15 15 13 10 8 7 6 5 3 3 4 4 5 6 7 6 6 6 5 3 2 1 0 0 0 0 1 3 3 3 3 3 4 4 3 3 2 2 1 1
10 11 14 16 16 15 13 10 8 7 6 4 4 3 4 5 7 8 8 8 8 5 2 1 1 0 0 0 0 1 2 3 3 3 3 3 4 3 3 3 2 1 1
13 13 14 16 16 16 14 10 8 7 6 5 5 4 4 5 7 9 10 11 9 5 2 0 0 1 1 0 0 0 1 2 2 1 1 2 2 1 1 1 1 1 2
14 14 14 15 16 15 13 10 7 6 5 4 5 6 6 6 8 10 12 11 8 6 4 2 1 2 2 1 0 0 0 1 1 0 0 0 0 0 0 0 0 1 1
14 14 15 15 16 15 12 10 7 5 4 3 4 6 7 6 8 12 13 11 8 5 4 3 4 5 4 1 0 0 0 0 0 0 0 0 0 0 0 0 0 0 0
16 16 16 17 17 16 13 10 8 6 4 4 4 6 8 7 9 12 12 11 8 5 3 4 5 7 6 3 0 0 0 0 0 0 0 0 0 0 0 0 0 0 0
19 19 19 17 17 16 14 11 8 6 5 6 6 8 10 10 10 12 11 10 8 5 4 4 5 6 6 4 1 0 0 0 0 0 0 0 0 0 0 0 0 0 0
19 20 19 17 15 15 14 11 8 6 7 8 9 11 11 12 13 13 11 8 7 4 4 4 5 5 4 3 1 0 0 0 0 0 0 0 0 0 0 0 0 0 0
15 16 16 15 14 14 12 9 7 8 8 9 10 12 11 12 13 13 10 7 4 3 2 3 3 3 2 1 0 0 0 0 0 0 0 0 0 0 0 0 0 0 0
11 12 14 15 14 13 12 8 7 9 9 8 9 10 11 11 13 13 9 4 2 1 1 1 1 1 1 0 0 0 0 0 0 0 0 0 0 0 0 0 0 0 0

GEFSMW_con_probscp_228.txt.gz
Probability
10 12 13 13 13 14 16 18 16 10 7 7 7 5 2 1 0 0 0 0 1 4 7 7 5 3 3 3 2 1 0 0 0 0 0 0 0 0 0 0 0 0 0
11 12 14 14 13 15 16 16 14 11 8 7 5 3 1 0 0 0 0 0 1 3 6 6 5 3 3 3 3 2 1 1 1 0 0 0 0 0 0 0 0 0 0
11 12 13 14 14 15 15 13 12 10 8 6 4 2 1 0 0 0 0 0 1 3 4 5 5 4 3 3 3 4 4 4 2 1 0 0 0 0 0 0 0 0 0
8 9 10 12 14 15 13 10 9 9 7 5 3 3 2 0 0 0 0 1 1 2 3 4 4 3 3 2 2 4 5 5 3 1 0 0 0 0 0 0 0 1 1
5 6 8 9 12 13 12 9 8 7 6 4 3 3 1 0 0 0 0 0 0 1 2 3 3 3 2 1 1 2 3 4 3 1 0 0 0 0 0 0 0 1 2
2 3 5 7 9 11 11 9 7 6 5 4 3 2 1 0 0 0 0 0 0 0 1 2 3 3 3 1 0 0 1 1 1 1 0 0 0 0 0 0 0 1 2
1 1 3 6 8 10 10 8 6 4 4 3 3 1 0 0 0 0 0 0 0 0 1 2 3 3 3 2 1 1 1 1 1 1 0 0 0 0 0 0 0 0 1
0 0 2 6 9 10 9 7 5 3 3 3 2 1 0 0 0 0 0 0 0 0 0 1 3 3 3 2 1 1 2 2 3 2 1 0 0 0 0 0 0 0 0
0 0 1 5 8 9 9 7 4 3 3 2 1 0 0 0 0 0 0 0 0 0 0 1 2 3 3 1 0 0 1 2 2 2 2 1 0 0 0 0 0 0 0
0 1 2 5 7 9 8 6 3 2 2 1 0 0 0 0 0 0 0 0 0 0 0 0 1 2 2 1 0 0 1 1 1 1 2 2 1 1 0 0 0 0 0
1 3 4 5 8 9 8 5 2 2 1 0 0 0 0 0 0 0 0 0 0 0 0 0 0 1 1 0 0 0 0 0 0 0 1 1 2 2 1 0 0 0 0
4 4 6 7 8 8 7 5 2 1 1 0 0 0 0 0 0 0 0 0 0 0 0 0 0 0 0 0 0 0 0 0 0 0 0 0 1 2 1 0 0 0 0
6 6 7 7 6 5 5 3 2 1 0 0 0 0 0 0 0 0 0 0 0 0 0 0 0 0 0 0 0 0 1 0 0 0 0 1 2 1 0 0 0 0 0
6 7 7 6 4 2 1 1 1 0 0 0 0 0 0 0 0 0 0 0 0 0 0 0 0 0 0 0 0 0 0 0 0 0 0 2 2 1 0 0 0 0 0
4 5 5 5 4 2 1 0 0 0 0 0 0 0 0 0 0 0 0 0 0 0 0 0 0 0 0 0 0 0 0 0 0 0 0 1 2 1 1 1 0 0 1
1 2 3 4 5 4 3 2 1 0 0 0 0 0 0 0 0 0 0 0 0 0 0 0 0 0 0 0 0 0 0 0 0 0 0 0 1 1 0 0 0 0 1
0 1 2 4 5 5 5 4 3 1 1 0 0 0 0 0 0 0 0 0 0 0 0 0 0 0 0 0 0 0 0 0 0 0 0 0 0 0 0 0 0 0 1
1 1 2 3 4 4 4 5 4 3 2 1 1 1 0 0 0 0 1 1 1 0 0 0 0 0 0 0 0 0 0 0 0 0 0 0 0 0 0 0 0 0 0
2 2 2 3 2 2 4 5 5 4 3 3 2 2 1 1 1 1 2 2 2 1 0 0 0 0 0 0 0 0 0 0 0 0 0 0 0 0 0 0 0 0 0
3 3 3 2 1 2 4 5 5 5 4 3 3 3 3 2 2 3 3 3 2 1 0 0 0 0 0 0 0 0 0 0 0 0 0 0 0 0 0 0 0 0 0
5 6 5 3 1 2 4 5 5 4 3 3 3 3 3 3 3 3 3 2 1 1 0 0 0 0 0 0 0 0 0 0 0 0 0 0 0 0 0 0 0 0 0
7 7 6 4 2 2 4 3 3 3 2 2 2 2 2 2 2 2 2 1 0 0 0 0 0 0 0 0 0 0 0 0 0 0 0 0 0 0 0 0 0 0 0
6 5 4 3 2 2 3 2 1 1 1 1 1 1 1 1 1 1 1 0 0 0 0 0 0 0 0 0 0 0 0 0 0 0 0 0 0 0 0 0 0 0 0
2 1 1 1 1 1 2 1 1 0 0 0 0 0 0 0 0 0 0 0 0 0 0 0 0 0 0 0 0 0 0 0 0 0 0 0 0 0 0 0 0 0 0
0 0 0 0 0 0 1 1 1 1 1 1 1 1 0 0 0 0 0 0 0 0 0 0 0 0 0 0 0 0 0 0 0 0 0 0 0 0 0 0 0 0 0
0 0 0 0 0 0 0 0 1 2 2 2 2 2 1 0 0 0 0 0 0 0 0 0 0 0 0 0 0 0 0 0 0 0 0 0 0 0 0 0 0 0 0

GEFSMW_con_probscp_234.txt.gz
Probability
4 5 7 9 10 9 8 7 8 9 8 6 4 2 1 0 0 1 2 2 3 3 4 5 5 4 3 3 3 3 3 3 2 1 0 0 0 0 0 0 0 0 0
4 4 5 8 9 9 8 8 7 6 5 4 3 2 1 0 0 0 1 1 2 3 4 5 5 4 3 3 3 3 3 3 2 1 0 0 0 0 0 0 0 0 0
4 4 4 5 7 8 8 8 7 5 4 3 2 1 1 0 0 0 0 0 1 2 3 4 5 4 3 3 3 3 3 3 2 1 1 0 0 0 0 0 0 0 0
4 4 4 3 4 4 6 7 6 6 6 5 3 2 1 0 0 0 0 0 0 1 2 3 5 4 3 3 3 3 3 3 2 1 0 0 0 0 0 0 0 0 0
3 4 5 4 3 2 3 4 5 6 6 6 4 2 1 0 0 0 0 0 0 0 1 2 3 3 2 1 2 2 2 2 2 1 0 0 1 1 0 0 0 0 0
1 3 5 6 5 3 2 3 4 4 5 6 5 2 0 0 0 0 0 0 0 0 0 1 2 2 1 0 1 1 1 1 1 0 0 0 1 1 1 0 0 0 0
1 2 4 5 6 5 4 4 3 3 4 5 4 1 0 0 0 0 0 0 0 0 0 1 2 2 1 1 2 1 0 0 0 0 0 0 1 1 1 1 0 0 0
0 1 2 3 4 4 4 4 4 3 3 4 3 1 0 0 0 0 0 0 0 0 0 1 2 1 1 2 3 2 1 0 0 0 0 0 0 0 0 0 0 0 0
0 0 0 1 1 2 4 5 5 4 3 3 2 1 0 0 0 0 0 0 0 0 0 1 1 0 1 2 3 2 1 0 0 0 0 0 0 0 0 0 0 0 0
0 0 0 0 0 2 4 5 5 4 3 3 2 1 0 0 0 0 0 0 0 0 0 0 0 0 1 2 3 2 1 0 0 0 0 0 0 0 0 0 0 0 0
0 0 0 0 0 1 3 5 5 4 3 3 1 0 0 0 0 0 0 0 0 0 0 0 0 0 1 2 3 2 1 0 0 0 0 0 0 0 0 0 0 0 0
0 0 0 0 0 1 3 5 5 4 3 2 1 0 0 0 0 0 0 0 0 0 0 0 0 0 1 2 3 2 1 0 0 0 0 0 0 0 0 0 0 0 0
0 0 0 0 0 1 3 6 6 4 2 1 0 0 0 0 0 0 0 0 0 0 0 0 0 0 1 2 3 1 0 0 0 0 0 0 0 0 0 0 0 0 0
0 0 0 0 0 1 3 6 6 5 2 0 0 0 0 0 0 0 0 0 0 0 0 0 0 0 1 2 2 1 0 0 0 1 0 0 0 0 0 0 0 0 0
0 0 0 0 1 2 3 5 6 4 1 0 0 0 0 0 0 0 0 0 0 0 0 0 0 0 1 2 2 1 0 0 0 0 0 0 0 0 0 0 0 0 0
0 0 0 0 1 1 2 4 4 2 0 0 0 0 0 0 0 0 0 0 0 0 0 0 0 0 0 1 1 0 0 0 0 0 0 0 0 0 0 0 0 0 0
0 0 1 1 1 0 0 1 1 0 0 0 0 0 0 0 0 0 0 0 0 0 0 0 0 0 0 0 0 0 0 0 0 0 0 0 0 0 0 0 0 0 0
0 0 1 1 0 0 0 0 0 0 0 0 0 0 0 0 0 0 0 0 0 0 0 0 0 0 0 0 0 0 0 0 0 0 0 0 0 0 0 0 0 0 0
0 0 1 1 1 1 0 0 0 0 0 0 0 0 0 0 0 0 0 0 0 0 0 0 0 0 0 0 0 0 0 0 0 0 0 0 0 0 0 0 0 0 0
0 0 0 0 1 2 1 0 0 0 0 0 0 0 0 0 0 0 0 0 0 0 0 0 0 0 0 0 0 0 0 0 0 0 0 0 0 0 0 0 0 0 0
0 0 0 0 1 2 1 1 1 1 0 0 0 0 0 0 0 0 0 0 0 0 0 0 0 0 0 0 0 0 0 0 0 0 0 0 0 0 0 0 0 0 0
0 0 0 0 1 2 2 2 2 1 0 0 0 0 0 0 0 0 0 0 0 0 0 0 0 0 0 0 0 0 0 0 0 0 0 0 0 0 0 0 0 0 0
0 0 0 0 1 2 2 2 1 1 1 1 0 0 0 0 0 0 0 0 0 0 0 0 0 0 0 0 0 0 0 0 0 0 0 0 0 0 0 0 0 0 0
0 0 0 0 0 1 1 1 0 1 1 1 0 0 0 0 0 0 0 0 0 0 0 0 0 0 0 0 0 0 0 0 0 0 0 0 0 0 0 0 0 0 0
0 0 0 0 0 0 0 0 0 0 1 1 0 0 0 0 0 0 0 0 0 0 0 0 0 0 0 0 0 0 0 0 0 0 0 0 0 0 0 0 0 0 0
0 0 0 0 0 0 0 0 0 0 0 0 0 0 0 0 0 0 0 0 0 0 0 0 0 0 0 0 0 0 0 0 0 0 0 0 0 0 0 0 0 0 0

GEFSMW_con_probscp_240.txt.gz
Probability
12 15 18 18 19 21 22 18 14 13 15 16 16 17 17 15 12 10 10 10 10 9 8 8 11 12 12 12 11 8 7 5 4 4 4 4 5 5 3 2 2 1 1
14 16 19 20 21 21 20 16 12 11 13 15 16 18 19 16 12 11 11 9 8 7 6 8 10 11 12 13 14 12 8 6 5 5 4 3 3 3 2 1 1 1 1
13 14 17 20 21 20 19 15 12 11 11 13 15 18 19 16 12 11 10 8 6 5 5 6 8 9 10 12 14 13 10 8 6 6 4 2 1 1 1 1 2 2 2
11 11 13 17 18 18 17 15 14 14 14 14 15 17 17 13 11 10 9 7 6 5 5 5 5 7 8 9 10 11 11 9 7 6 4 2 1 2 1 1 1 1 2
10 9 11 14 15 15 15 14 15 16 16 16 17 18 15 12 11 10 8 7 6 4 4 4 4 6 8 8 8 8 9 8 6 5 4 3 2 2 2 1 1 1 1
8 9 11 13 13 12 12 12 13 14 14 16 18 18 15 13 12 10 7 5 3 2 1 2 3 4 7 8 7 7 7 7 6 5 5 4 3 3 3 3 2 2 1
6 7 10 12 11 10 11 11 12 13 14 15 16 15 14 13 12 10 7 4 1 0 0 1 1 2 4 6 7 8 7 6 6 6 5 4 3 3 4 4 3 2 2
6 6 7 8 9 10 10 11 11 13 14 14 13 13 12 13 13 10 6 4 2 1 0 0 0 0 2 4 6 8 7 6 6 6 5 4 3 3 3 4 3 2 2
5 4 4 4 6 9 10 10 11 12 12 12 11 10 11 12 12 8 4 3 2 1 0 0 0 0 1 3 4 6 6 6 6 6 5 3 4 4 3 3 3 3 2
5 4 3 2 5 8 9 9 9 10 9 9 9 8 9 10 9 6 2 1 1 0 0 0 0 0 1 2 3 4 6 6 6 5 4 2 3 4 4 3 3 2 2
6 5 3 2 4 7 8 8 8 8 7 7 7 7 7 8 6 4 1 0 0 0 0 0 0 0 1 2 3 4 5 6 5 4 3 1 2 3 3 3 2 1 2
6 6 5 3 4 6 7 7 7 7 6 5 6 7 7 6 5 3 1 0 0 0 0 0 0 0 1 2 3 4 5 4 4 3 3 1 1 3 3 3 2 2 3
6 7 7 6 5 5 6 6 7 7 7 6 7 8 8 6 4 3 1 0 0 0 1 1 0 0 1 2 2 3 3 3 3 3 3 2 2 4 4 3 3 3 3
8 8 10 10 9 7 7 7 8 9 10 9 9 9 8 6 5 4 2 1 1 1 2 2 1 1 1 1 1 2 3 4 4 4 3 2 2 4 4 3 3 3 3
9 10 12 14 13 10 7 8 9 11 10 10 9 8 7 6 6 5 4 3 2 1 2 2 2 2 1 0 0 2 3 5 5 5 4 2 2 3 3 2 3 3 2
8 9 12 15 15 13 10 10 11 11 10 10 9 8 7 6 6 6 5 4 3 2 1 1 1 1 1 0 0 1 3 4 5 5 5 4 2 1 1 1 1 1 1
6 7 11 15 16 15 12 12 12 10 9 10 9 7 6 6 6 6 6 6 5 3 1 0 0 0 0 0 0 0 1 2 4 5 6 5 3 2 2 1 0 1 1
8 10 12 14 16 16 15 14 12 10 9 9 8 7 6 6 6 6 6 6 6 4 1 0 0 0 0 0 0 0 0 1 3 5 6 6 5 3 2 2 1 1 2
12 13 13 13 15 17 18 16 12 10 9 8 7 7 7 7 6 6 6 7 7 5 1 0 0 0 0 0 0 0 0 2 3 4 4 5 4 3 2 2 2 2 2
15 14 13 13 16 19 20 17 13 9 8 8 8 9 9 8 7 7 7 7 7 5 2 0 0 0 0 0 0 0 0 1 3 3 3 3 2 1 0 1 2 2 2
14 13 12 14 16 18 18 16 13 11 9 9 11 11 10 9 8 8 8 7 7 5 2 0 0 0 0 0 0 0 0 1 2 2 3 2 1 0 0 0 1 1 1
12 11 11 13 15 16 15 14 14 13 12 11 12 11 9 8 8 8 8 7 6 4 1 0 0 0 0 0 0 0 0 0 1 1 1 1 0 0 0 0 0 0 0
10 9 9 11 13 12 12 12 14 13 13 13 13 10 8 7 7 7 7 5 3 1 0 0 0 0 0 0 0 0 0 0 0 0 0 0 0 0 0 0 0 0 0
9 8 7 8 8 8 8 10 11 12 13 14 14 11 8 6 6 5 4 4 2 1 0 0 0 0 0 0 0 0 0 0 0 0 0 0 0 0 0 0 0 0 0
9 8 6 4 3 3 4 6 10 12 13 13 12 10 7 6 4 3 2 2 2 1 0 0 0 0 0 0 0 0 0 0 0 0 0 0 0 0 0 0 0 0 0
10 9 6 3 1 1 2 4 9 13 14 12 11 9 7 5 3 1 1 1 1 1 0 0 0 0 0 0 0 0 0 0 0 0 0 0 0 0 0 0 0 0 0

GEFSMW_con_probscp_246.txt.gz
Probability
27 28 29 33 38 39 38 38 39 40 39 37 35 32 29 26 24 26 27 25 20 16 14 15 17 19 17 13 9 6 5 4 2 1 1 2 2 3 5 6 6 7 8
27 27 28 32 37 39 38 38 38 40 39 37 35 33 31 28 27 28 28 25 21 17 13 14 15 17 16 13 10 8 7 5 3 2 1 1 2 2 4 5 6 6 7
26 27 28 31 35 37 37 36 37 38 36 33 31 32 32 31 30 29 27 24 21 16 12 10 10 11 12 12 11 10 10 9 6 4 2 1 1 1 1 3 4 5 6
27 27 28 30 32 33 34 34 34 35 32 28 27 29 32 31 30 28 25 22 18 14 9 6 6 7 8 9 9 9 10 10 8 6 4 2 2 1 0 1 2 4 5
27 27 28 29 29 29 31 31 33 34 32 27 25 28 30 30 28 25 21 19 17 12 7 4 5 6 6 7 8 7 7 8 8 6 4 3 3 2 1 0 1 1 2
25 26 27 27 25 26 27 29 33 34 30 26 24 25 25 25 24 21 19 19 15 11 7 5 4 4 4 5 6 6 5 6 6 6 4 3 3 2 1 0 0 0 1
22 23 25 25 24 23 24 27 31 31 26 23 22 21 20 21 20 19 19 18 15 11 7 5 5 5 4 3 4 5 5 5 6 6 5 4 3 2 1 0 1 1 1
21 20 22 24 23 22 23 26 30 28 23 20 20 19 18 18 18 17 17 17 14 11 7 6 7 7 5 4 4 5 6 6 6 6 6 5 3 2 1 1 2 2 2
20 19 20 22 21 22 25 27 29 28 23 19 18 17 16 16 15 15 15 14 13 10 7 6 7 7 6 5 5 6 6 6 5 5 5 5 4 3 2 2 2 2 2
17 18 20 21 20 22 24 26 27 26 23 19 17 16 14 13 13 13 13 13 12 10 8 7 6 5 5 5 6 6 5 5 4 5 6 6 5 4 2 1 2 3 3
14 17 19 20 19 20 21 22 22 22 20 18 18 18 16 14 12 12 13 13 13 10 8 7 5 4 4 4 5 5 4 5 6 7 8 8 7 6 3 1 1 2 2
12 14 18 19 18 18 19 19 17 16 16 16 17 18 17 15 13 13 14 15 14 11 8 6 4 3 3 3 4 5 5 5 7 8 10 10 9 7 6 4 2 1 1
11 13 17 19 18 19 20 18 16 14 14 14 15 16 15 15 14 14 15 15 14 11 8 5 4 3 3 3 4 5 5 5 6 7 10 10 9 8 8 7 5 3 2
11 13 16 18 19 21 21 20 18 15 14 14 14 15 15 14 15 15 15 14 13 11 8 6 4 3 3 3 3 4 4 5 6 8 9 9 8 8 8 7 6 5 5
9 11 14 15 18 19 21 22 21 19 18 17 16 16 17 17 17 17 16 14 12 10 9 7 5 3 2 1 1 2 3 5 6 8 9 9 7 5 3 3 4 4 4
10 11 13 15 17 18 20 23 26 25 23 20 17 17 19 20 20 19 18 16 13 11 10 9 6 3 1 0 0 1 2 4 6 8 9 7 5 2 1 0 1 2 2
16 15 16 18 20 20 21 25 29 29 26 24 20 18 18 20 21 20 19 18 17 15 13 11 9 5 2 0 0 0 1 3 5 8 9 8 5 2 0 0 0 0 1
18 17 18 20 22 23 24 25 27 27 25 25 22 19 17 18 18 19 21 21 20 19 17 15 13 10 4 0 0 0 0 2 4 6 9 10 6 2 0 0 0 0 1
16 16 16 18 22 25 25 24 23 23 23 23 22 20 17 16 17 19 23 23 23 21 18 16 15 13 7 2 0 0 0 2 2 3 5 7 5 1 0 0 0 0 1
16 15 14 16 21 24 25 22 20 21 21 20 20 18 16 16 18 22 25 24 23 21 17 15 15 15 11 4 1 0 0 1 1 0 1 2 1 0 0 0 0 0 0
19 16 14 15 19 21 23 21 19 17 17 17 16 15 13 14 18 24 26 25 23 20 18 17 17 17 13 6 1 0 0 0 0 1 1 0 0 0 0 0 0 0 0
19 16 15 16 17 19 21 20 18 15 14 14 13 12 12 12 15 21 25 25 22 18 16 16 15 15 12 7 2 0 0 0 0 1 1 0 0 0 0 0 0 0 0
18 16 16 16 16 17 18 18 17 15 12 11 11 11 12 12 15 19 22 22 19 15 11 10 10 11 11 9 3 0 0 0 0 1 1 0 0 0 0 0 0 0 0
16 16 16 16 15 16 17 17 16 15 13 11 12 11 12 14 16 20 21 20 18 13 9 7 7 7 9 7 3 0 0 0 0 0 0 0 0 0 0 1 1 1 1
13 13 15 15 15 15 16 17 16 16 14 14 13 12 12 15 18 20 19 16 14 11 8 6 5 4 4 3 1 0 0 0 0 0 0 0 0 0 0 1 2 2 2
11 12 13 14 14 14 16 16 16 16 15 15 15 13 13 16 19 19 16 11 8 6 5 5 4 2 1 0 0 0 0 0 0 0 0 0 0 0 0 1 1 1 1

GEFSMW_con_probscp_252.txt.gz
Probability
20 21 22 21 21 22 24 24 21 16 12 10 7 4 1 0 1 3 4 4 4 2 1 0 0 0 0 0 0 0 0 0 0 0 0 0 0 0 0 0 0 0 0
20 21 21 21 21 21 22 23 21 17 14 12 8 4 1 0 1 3 5 5 4 2 0 0 0 0 0 0 0 0 0 0 0 0 0 0 0 0 0 0 0 0 0
20 20 22 22 21 20 20 20 18 17 16 15 11 6 2 0 1 3 6 6 4 1 0 0 0 0 0 0 0 0 0 0 0 0 0 0 0 0 0 0 0 0 1
19 20 22 23 22 20 18 16 15 14 16 16 13 9 4 0 1 4 7 6 3 1 0 0 0 0 0 0 0 0 1 1 0 0 0 0 0 0 0 0 0 0 1
17 19 21 22 22 20 17 15 13 13 14 15 14 10 6 2 2 4 6 5 3 2 2 1 1 1 1 0 0 0 1 2 1 0 0 0 0 0 0 0 0 0 1
15 16 19 20 21 19 17 14 12 12 12 12 12 10 6 4 4 5 6 5 4 4 4 3 2 2 2 1 1 1 2 2 1 0 0 0 0 0 0 0 0 0 0
12 14 16 18 18 16 14 12 9 9 10 11 10 9 6 5 5 6 6 6 5 5 5 4 3 3 3 3 2 3 3 2 1 0 0 0 0 0 0 0 0 0 0
12 14 17 17 15 12 10 8 6 6 8 10 10 9 6 5 6 7 7 6 4 4 4 3 3 3 3 3 3 3 2 1 0 0 0 0 0 0 0 0 0 0 0
12 15 17 16 12 9 7 6 5 6 8 10 10 9 6 5 6 8 7 5 3 3 3 3 3 3 3 3 3 3 1 0 0 0 0 0 0 0 0 0 0 0 0
11 13 14 12 8 7 7 5 4 5 7 9 9 9 7 6 7 9 7 5 3 3 3 3 3 3 3 3 3 2 1 0 0 0 0 0 0 0 0 0 0 0 0
8 9 10 7 5 5 5 4 3 4 6 9 10 9 8 7 8 9 8 6 4 3 3 3 3 3 3 3 3 1 0 0 0 0 0 0 0 0 0 0 0 0 0
6 7 7 5 4 4 4 3 3 3 5 8 9 9 8 7 7 8 8 7 5 3 3 3 3 3 3 3 2 1 0 0 0 0 0 0 0 0 0 0 0 0 0
6 5 6 6 5 4 4 4 4 4 5 7 8 8 7 7 7 7 7 7 6 4 3 3 3 3 2 1 1 0 0 0 0 0 0 0 0 0 0 0 0 0 0
4 4 5 6 7 6 5 7 7 6 7 7 7 6 6 6 6 6 6 6 5 3 3 3 3 2 1 0 0 0 0 0 0 0 0 0 0 0 0 0 0 0 0
2 2 4 5 6 6 7 8 8 9 9 9 7 6 6 6 6 6 4 3 2 1 2 3 2 1 0 0 0 0 0 0 0 0 0 0 0 0 0 0 0 0 0
1 1 3 4 4 5 6 8 8 9 10 9 7 6 6 6 6 6 3 1 0 0 1 2 1 0 0 0 0 0 0 0 0 0 0 0 0 0 0 0 0 0 0
2 3 3 3 3 4 5 7 8 9 9 9 8 8 8 8 8 7 4 1 0 0 0 0 0 0 0 0 0 0 0 0 0 0 0 0 0 0 0 0 0 0 0
3 4 3 3 3 3 4 5 7 9 9 9 9 9 10 10 11 10 6 2 0 0 0 0 0 0 0 0 0 0 0 0 0 0 0 0 0 0 0 0 0 0 0
3 3 3 2 3 3 3 4 6 9 10 10 10 10 11 12 13 12 8 4 2 1 1 0 0 0 0 0 0 0 0 0 0 0 0 0 0 0 0 0 0 0 0
2 2 2 2 3 3 3 4 6 8 10 10 10 10 11 12 13 11 9 6 5 5 3 1 0 0 0 0 0 0 0 0 0 0 0 0 0 0 0 0 0 0 0
4 3 2 2 2 3 3 4 5 7 8 10 11 11 11 11 11 9 8 8 7 7 5 2 0 0 0 0 0 0 0 0 0 0 0 0 0 0 0 0 0 0 0
4 4 3 2 2 2 3 3 4 4 6 8 10 11 11 9 7 7 7 8 8 7 6 3 1 0 0 0 0 0 0 0 0 0 0 0 0 0 0 0 0 0 0
3 3 3 3 2 1 2 3 3 3 3 5 7 8 8 6 5 4 5 6 7 7 6 3 1 1 1 0 0 0 0 0 0 0 0 0 0 0 0 0 0 0 0
3 2 3 3 2 1 1 3 3 3 1 2 4 5 5 5 4 4 4 4 5 6 5 4 3 2 2 1 0 0 0 0 0 0 0 0 0 0 0 0 0 0 0
2 2 2 2 2 1 1 2 2 2 1 1 2 3 3 4 4 4 3 3 4 5 4 3 3 3 3 2 1 0 0 0 0 0 0 0 0 0 0 0 0 0 0
1 1 1 1 1 1 2 1 1 1 0 0 1 3 3 4 4 4 3 3 4 4 4 3 3 3 3 2 1 0 0 0 0 0 0 0 0 0 0 0 0 0 0